H1 CPF 1 NER 2022 3 4 9 5631 glonass139 H2 1808601 9139 43687 2022 3 4 0 0 0 2022 3 7 23 45 0 900 1 1 0 0 0 H9 10 0 59642 0.00000 0 -6666600.100 -22990253.352 8830921.967 10 0 59642 900.00000 0 -6914397.363 -23865010.508 5793335.605 10 0 59642 1800.00000 0 -7146686.823 -24346921.283 2643267.359 10 0 59642 2700.00000 0 -7308173.416 -24434270.456 -558130.997 10 0 59642 3600.00000 0 -7345270.984 -24138474.087 -3748687.007 10 0 59642 4500.00000 0 -7208605.039 -23483523.639 -6866416.064 10 0 59642 5400.00000 0 -6855345.697 -22504920.715 -9850728.000 10 0 59642 6300.00000 0 -6251271.104 -21248147.028 -12643607.891 10 0 59642 7200.00000 0 -5372472.995 -19766733.920 -15190747.565 10 0 59642 8100.00000 0 -4206630.939 -18120012.582 -17442605.407 10 0 59642 9000.00000 0 -2753800.033 -16370639.585 -19355373.512 10 0 59642 9900.00000 0 -1026677.329 -14582001.797 -20891833.043 10 0 59642 10800.00000 0 949665.815 -12815609.650 -22022081.072 10 0 59642 11700.00000 0 3138575.769 -11128588.135 -22724114.707 10 0 59642 12600.00000 0 5493101.249 -9571370.671 -22984261.128 10 0 59642 13500.00000 0 7957718.068 -8185692.253 -22797445.211 10 0 59642 14400.00000 0 10470423.047 -7002965.644 -22167289.526 10 0 59642 15300.00000 0 12965110.495 -6043108.165 -21106044.706 10 0 59642 16200.00000 0 15374132.743 -5313867.628 -19634351.443 10 0 59642 17100.00000 0 17630938.439 -4810674.863 -17780838.567 10 0 59642 18000.00000 0 19672678.677 -4517028.171 -15581564.910 10 0 59642 18900.00000 0 21442672.422 -4405392.468 -13079315.698 10 0 59642 19800.00000 0 22892628.338 -4438574.180 -10322767.127 10 0 59642 20700.00000 0 23984530.208 -4571512.792 -7365535.558 10 0 59642 21600.00000 0 24692107.318 -4753412.259 -4265130.090 10 0 59642 22500.00000 0 25001828.570 -4930121.097 -1081829.289 10 0 59642 23400.00000 0 24913379.140 -5046659.465 2122495.443 10 0 59642 24300.00000 0 24439600.460 -5049785.344 5285586.417 10 0 59642 25200.00000 0 23605896.839 -4890490.421 8346012.095 10 0 59642 26100.00000 0 22449134.608 -4526319.402 11244361.308 10 0 59642 27000.00000 0 21016080.886 -3923414.177 13924395.797 10 0 59642 27900.00000 0 19361448.274 -3058196.028 16334138.684 10 0 59642 28800.00000 0 17545628.096 -1918614.568 18426877.899 10 0 59642 29700.00000 0 15632207.438 -504910.444 20162065.632 10 0 59642 30600.00000 0 13685373.897 1170140.792 21506097.124 10 0 59642 31500.00000 0 11767316.196 3081514.399 22432954.482 10 0 59642 32400.00000 0 9935728.558 5192740.621 22924703.994 10 0 59642 33300.00000 0 8241522.027 7457194.684 22971838.131 10 0 59642 34200.00000 0 6726837.110 9819819.917 22573456.251 10 0 59642 35100.00000 0 5423439.391 12219213.461 21737280.921 10 0 59642 36000.00000 0 4351563.794 14589989.125 20479509.611 10 0 59642 36900.00000 0 3519254.670 16865320.276 18824504.442 10 0 59642 37800.00000 0 2922228.236 18979558.217 16804325.495 10 0 59642 38700.00000 0 2544262.363 20870818.060 14458115.982 10 0 59642 39600.00000 0 2358096.784 22483425.115 11831350.418 10 0 59642 40500.00000 0 2326805.495 23770120.262 8974959.512 10 0 59642 41400.00000 0 2405583.330 24693932.501 5944347.956 10 0 59642 42300.00000 0 2543871.225 25229640.280 2798323.668 10 0 59642 43200.00000 0 2687730.223 25364760.251 -402041.122 10 0 59642 44100.00000 0 2782363.613 25100021.638 -3594594.966 10 0 59642 45000.00000 0 2774680.089 24449305.862 -6717315.257 10 0 59642 45900.00000 0 2615788.838 23439053.539 -9709515.509 10 0 59642 46800.00000 0 2263320.144 22107163.364 -12513028.005 10 0 59642 47700.00000 0 1683472.349 20501428.801 -15073338.266 10 0 59642 48600.00000 0 852697.421 18677578.038 -17340648.875 10 0 59642 49500.00000 0 -241047.402 16696999.285 -19270851.646 10 0 59642 50400.00000 0 -1597536.083 14624246.806 -20826388.843 10 0 59642 51300.00000 0 -3204032.031 12524432.131 -21976986.649 10 0 59642 52200.00000 0 -5035579.798 10460609.621 -22700246.525 10 0 59642 53100.00000 0 -7055819.345 8491265.698 -22982082.946 10 0 59642 54000.00000 0 -9218290.096 6668016.518 -22816999.046 10 0 59642 54900.00000 0 -11468171.344 5033609.955 -22208194.810 10 0 59642 55800.00000 0 -13744387.109 3620314.978 -21167505.652 10 0 59642 56700.00000 0 -15981988.234 2448765.088 -19715172.488 10 0 59642 57600.00000 0 -18114712.687 1527303.325 -17879447.619 10 0 59642 58500.00000 0 -20077617.332 851855.326 -15696043.947 10 0 59642 59400.00000 0 -21809671.276 406334.562 -13207438.152 10 0 59642 60300.00000 0 -23256202.382 163561.432 -10462041.316 10 0 59642 61200.00000 0 -24371094.400 86656.212 -7513253.302 10 0 59642 62100.00000 0 -25118642.707 130845.753 -4418419.558 10 0 59642 63000.00000 0 -25474990.941 245606.295 -1237711.003 10 0 59642 63900.00000 0 -25429088.393 377050.624 1967050.544 10 0 59642 64800.00000 0 -24983128.424 470457.428 5133598.037 10 0 59642 65700.00000 0 -24152449.972 472834.872 8200431.900 10 0 59642 66600.00000 0 -22964906.949 335409.132 11108015.667 10 0 59642 67500.00000 0 -21459732.673 15932.023 13799931.050 10 0 59642 68400.00000 0 -19685947.591 -519290.256 16223969.964 10 0 59642 69300.00000 0 -17700377.539 -1293733.213 18333142.501 10 0 59642 70200.00000 0 -15565365.761 -2319425.426 20086581.790 10 0 59642 71100.00000 0 -13346274.310 -3596207.201 21450328.968 10 0 59642 72000.00000 0 -11108878.891 -5111508.076 22397983.832 10 0 59642 72900.00000 0 -8916765.144 -6840653.056 22911209.514 10 0 59642 73800.00000 0 -6828833.895 -8747685.598 22980082.230 10 0 59642 74700.00000 0 -4897018.225 -10786673.844 22603279.991 10 0 59642 75600.00000 0 -3164306.042 -12903446.747 21788107.020 10 0 59642 76500.00000 0 -1663149.179 -15037688.954 20550353.503 10 0 59642 77400.00000 0 -414324.046 -17125308.307 18913993.194 10 0 59642 78300.00000 0 573709.843 -19100978.537 16910724.226 10 0 59642 79200.00000 0 1304927.734 -20900752.151 14579361.306 10 0 59642 80100.00000 0 1795329.734 -22464635.296 11965090.288 10 0 59642 81000.00000 0 2072021.045 -23739017.594 9118598.706 10 0 59642 81900.00000 0 2171821.452 -24678855.644 6095098.350 10 0 59642 82800.00000 0 2139462.975 -25249518.662 2953258.324 10 0 59642 83700.00000 0 2025452.016 -25428218.657 -245931.104 10 0 59642 84600.00000 0 1883686.673 -25204964.620 -3440341.961 10 0 59642 85500.00000 0 1768930.291 -24583000.017 -6567916.124 10 0 59643 0.00000 0 1734248.772 -23578704.645 -9567873.024 10 0 59643 900.00000 0 1828520.727 -22220963.658 -12381895.172 10 0 59643 1800.00000 0 2094126.727 -20550031.093 -14955263.926 10 0 59643 2700.00000 0 2564916.319 -18615933.280 -17237928.392 10 0 59643 3600.00000 0 3264539.938 -16476479.947 -19185482.222 10 0 59643 4500.00000 0 4205217.313 -14194965.608 -20760030.637 10 0 59643 5400.00000 0 5386995.606 -11837657.307 -21930930.437 10 0 59643 6300.00000 0 6797529.867 -9471173.518 -22675388.539 10 0 59643 7200.00000 0 8412396.300 -7159863.606 -22978907.380 10 0 59643 8100.00000 0 10195926.426 -4963296.953 -22835568.582 10 0 59643 9000.00000 0 12102528.304 -2933966.163 -22248149.353 10 0 59643 9900.00000 0 14078440.332 -1115299.769 -21228069.294 10 0 59643 10800.00000 0 16063844.949 459933.283 -19795168.589 10 0 59643 11700.00000 0 17995254.321 1770761.568 -17977321.689 10 0 59643 12600.00000 0 19808068.330 2808644.913 -15809893.892 10 0 59643 13500.00000 0 21439197.930 3577578.605 -13335051.291 10 0 59643 14400.00000 0 22829643.890 4093665.049 -10600937.449 10 0 59643 15300.00000 0 23926922.595 4384172.309 -7660732.991 10 0 59643 16200.00000 0 24687237.017 4486120.673 -4571616.681 10 0 59643 17100.00000 0 25077301.537 4444458.370 -1393648.557 10 0 59643 18000.00000 0 25075743.909 4309904.855 1811402.510 10 0 59643 18900.00000 0 24674025.547 4136554.162 4981263.448 10 0 59643 19800.00000 0 23876841.688 3979340.814 8054369.871 10 0 59643 20700.00000 0 22701984.930 3891476.379 10971063.018 10 0 59643 21600.00000 0 21179678.328 3921965.832 13674747.268 10 0 59643 22500.00000 0 19351406.354 4113309.154 16112985.698 10 0 59643 23400.00000 0 17268293.110 4499485.535 18238512.559 10 0 59643 24300.00000 0 14989095.787 5104305.375 20010143.544 10 0 59643 25200.00000 0 12577897.120 5940199.667 21393566.939 10 0 59643 26100.00000 0 10101592.850 7007497.793 22362001.094 10 0 59643 27000.00000 0 7627278.223 8294224.406 22896706.449 10 0 59643 27900.00000 0 5219641.394 9776424.373 22987343.021 10 0 59643 28800.00000 0 2938471.079 11419002.868 22632167.077 10 0 59643 29700.00000 0 836380.727 13177046.360 21838063.642 10 0 59643 30600.00000 0 -1043157.530 14997570.401 20620414.301 10 0 59643 31500.00000 0 -2667388.697 16821622.295 19002802.675 10 0 59643 32400.00000 0 -4015396.222 18586652.011 17016562.784 10 0 59643 33300.00000 0 -5078723.203 20229053.367 14700178.327 10 0 59643 34200.00000 0 -5861468.502 21686770.058 12098543.722 10 0 59643 35100.00000 0 -6379854.596 22901858.150 9262100.365 10 0 59643 36000.00000 0 -6661285.938 23822898.011 6245864.055 10 0 59643 36900.00000 0 -6742937.916 24407154.531 3108361.927 10 0 59643 37800.00000 0 -6669936.260 24622394.673 -89500.871 10 0 59643 38700.00000 0 -6493204.140 24448285.419 -3285622.930 10 0 59643 39600.00000 0 -6267068.256 23877312.625 -6417913.582 10 0 59643 40500.00000 0 -6046725.690 22915181.234 -9425501.457 10 0 59643 41400.00000 0 -5885679.235 21580679.121 -12249920.712 10 0 59643 42300.00000 0 -5833250.417 19905009.372 -14836251.278 10 0 59643 43200.00000 0 -5932276.225 17930618.196 -17134190.602 10 0 59643 44100.00000 0 -6217087.828 15709566.885 -19099035.634 10 0 59643 45000.00000 0 -6711857.665 13301515.454 -20692555.642 10 0 59643 45900.00000 0 -7429385.671 10771401.824 -21883738.779 10 0 59643 46800.00000 0 -8370376.941 8186913.101 -22649397.790 10 0 59643 47700.00000 0 -9523242.262 5615854.223 -22974623.090 10 0 59643 48600.00000 0 -10864430.954 3123523.347 -22853074.418 10 0 59643 49500.00000 0 -12359283.026 770202.980 -22287105.425 10 0 59643 50400.00000 0 -13963365.650 -1391128.993 -21287718.712 10 0 59643 51300.00000 0 -15624238.602 -3316773.603 -19874352.113 10 0 59643 52200.00000 0 -17283575.090 -4973888.829 -18074500.216 10 0 59643 53100.00000 0 -18879549.282 -6341606.359 -15923178.373 10 0 59643 54000.00000 0 -20349390.446 -7411641.529 -13462239.491 10 0 59643 54900.00000 0 -21631996.441 -8188372.210 -10739556.847 10 0 59643 55800.00000 0 -22670496.503 -8688384.706 -7808088.984 10 0 59643 56700.00000 0 -23414655.377 -8939507.340 -4724845.125 10 0 59643 57600.00000 0 -23823017.388 -8979373.983 -1549771.610 10 0 59643 58500.00000 0 -23864699.976 -8853579.623 1655418.365 10 0 59643 59400.00000 0 -23520761.092 -8613507.334 4828448.360 10 0 59643 60300.00000 0 -22785082.858 -8313919.745 7907691.707 10 0 59643 61200.00000 0 -21664734.399 -8010417.878 10833369.754 10 0 59643 62100.00000 0 -20179798.749 -7756875.626 13548711.780 10 0 59643 63000.00000 0 -18362671.226 -7602958.807 16001054.039 10 0 59643 63900.00000 0 -16256858.875 -7591833.874 18142856.665 10 0 59643 64800.00000 0 -13915331.181 -7758163.030 19932619.308 10 0 59643 65700.00000 0 -11398490.797 -8126470.208 21335678.404 10 0 59643 66600.00000 0 -8771848.568 -8709946.584 22324871.458 10 0 59643 67500.00000 0 -6103499.016 -9509745.829 22881056.408 10 0 59643 68400.00000 0 -3461500.347 -10514798.809 22993476.863 10 0 59643 69300.00000 0 -911266.812 -11702155.793 22659966.789 10 0 59643 70200.00000 0 1486919.600 -13037842.416 21886991.139 10 0 59643 71100.00000 0 3680176.219 -14478194.326 20689521.754 10 0 59643 72000.00000 0 5624972.601 -15971615.560 19090750.732 10 0 59643 72900.00000 0 7288689.479 -17460688.080 17121646.373 10 0 59643 73800.00000 0 8650720.068 -18884545.178 14820359.533 10 0 59643 74700.00000 0 9703068.783 -20181410.154 12231491.144 10 0 59643 75600.00000 0 10450423.304 -21291194.545 9405234.196 10 0 59643 76500.00000 0 10909697.676 -22158047.293 6396406.049 10 0 59643 77400.00000 0 11109066.202 -22732747.823 3263389.273 10 0 59643 78300.00000 0 11086529.228 -22974842.218 67001.207 10 0 59643 79200.00000 0 10888071.719 -22854432.087 -3130686.028 10 0 59643 80100.00000 0 10565492.681 -22353539.998 -6267551.918 10 0 59643 81000.00000 0 10173997.589 -21466993.062 -9282636.663 10 0 59643 81900.00000 0 9769656.102 -20202786.319 -12117329.120 10 0 59643 82800.00000 0 9406833.125 -18581909.532 -14716509.892 10 0 59643 83700.00000 0 9135702.495 -16637643.553 -17029626.945 10 0 59643 84600.00000 0 8999949.100 -14414354.687 -19011682.463 10 0 59643 85500.00000 0 9034757.268 -11965836.754 -20624111.394 10 0 59644 0.00000 0 9265171.071 -9353269.627 -21835534.421 10 0 59644 900.00000 0 9704896.680 -6642877.434 -22622371.209 10 0 59644 1800.00000 0 10355597.654 -3903387.205 -22969300.458 10 0 59644 2700.00000 0 11206714.002 -1203388.694 -22869560.038 10 0 59644 3600.00000 0 12235813.075 1391291.623 -22325079.651 10 0 59644 4500.00000 0 13409458.238 3820094.848 -21346444.113 10 0 59644 5400.00000 0 14684559.318 6030008.279 -19952687.784 10 0 59644 6300.00000 0 16010148.450 7977524.119 -18170923.944 10 0 59644 7200.00000 0 17329506.876 9630197.271 -16035816.242 10 0 59644 8100.00000 0 18582553.321 10967738.196 -13588902.340 10 0 59644 9000.00000 0 19708393.395 11982596.279 -10877782.877 10 0 59644 9900.00000 0 20647922.422 12680010.510 -7955191.693 10 0 59644 10800.00000 0 21346371.774 13077526.863 -4877965.616 10 0 59644 11700.00000 0 21755691.051 13204004.204 -1705934.268 10 0 59644 12600.00000 0 21836665.305 13098152.148 1499247.930 10 0 59644 13500.00000 0 21560677.777 12806664.056 4675304.256 10 0 59644 14400.00000 0 20911043.605 12382025.392 7760548.736 10 0 59644 15300.00000 0 19883858.193 11880091.159 10695085.606 10 0 59644 16200.00000 0 18488324.448 11357535.701 13421971.586 10 0 59644 17100.00000 0 16746545.064 10869283.213 15888318.341 10 0 59644 18000.00000 0 14692788.504 10466027.729 18046313.849 10 0 59644 18900.00000 0 12372259.257 10191947.280 19854143.358 10 0 59644 19800.00000 0 9839423.434 10082708.357 21276792.792 10 0 59644 20700.00000 0 7155959.125 10163844.394 22286719.822 10 0 59644 21600.00000 0 4388416.152 10449576.111 22864380.555 10 0 59644 22500.00000 0 1605681.588 10942123.042 22998602.481 10 0 59644 23400.00000 0 -1123644.738 11631534.984 22686797.133 10 0 59644 24300.00000 0 -3733857.112 12496050.606 21935008.811 10 0 59644 25200.00000 0 -6164626.398 13502968.523 20757798.544 10 0 59644 26100.00000 0 -8363256.345 14609994.891 19177965.374 10 0 59644 27000.00000 0 -10286621.376 15767011.796 17226109.885 10 0 59644 27900.00000 0 -11902706.511 16918193.102 14940047.721 10 0 59644 28800.00000 0 -13191686.251 18004379.762 12364083.643 10 0 59644 29700.00000 0 -14146498.334 18965615.515 9548159.342 10 0 59644 30600.00000 0 -14772889.106 19743736.847 6546890.701 10 0 59644 31500.00000 0 -15088929.112 20284908.420 3418512.638 10 0 59644 32400.00000 0 -15124019.764 20541997.058 223751.592 10 0 59644 33300.00000 0 -14917433.281 20476683.801 -2975352.642 10 0 59644 34200.00000 0 -14516447.755 20061224.259 -6116652.645 10 0 59644 35100.00000 0 -13974156.460 19279782.018 -9139102.993 10 0 59644 36000.00000 0 -13347044.303 18129277.758 -11983949.846 10 0 59644 36900.00000 0 -12692434.294 16619717.025 -14595876.817 10 0 59644 37800.00000 0 -12065912.410 14773981.549 -16924084.425 10 0 59644 38700.00000 0 -11518840.204 12627091.547 -18923281.770 10 0 59644 39600.00000 0 -11096060.719 10224968.785 -20554570.798 10 0 59644 40500.00000 0 -10833895.062 7622751.096 -21786205.837 10 0 59644 41400.00000 0 -10758514.672 4882727.813 -22594213.582 10 0 59644 42300.00000 0 -10884758.331 2071981.592 -22962861.438 10 0 59644 43200.00000 0 -11215444.219 -740165.799 -22884965.169 10 0 59644 44100.00000 0 -11741206.349 -3484797.938 -22362029.876 10 0 59644 45000.00000 0 -12440862.592 -6096028.809 -21404221.530 10 0 59644 45900.00000 0 -13282299.047 -8513499.760 -20030169.537 10 0 59644 46800.00000 0 -14223833.709 -10684644.954 -18266604.012 10 0 59644 47700.00000 0 -15216002.047 -12566631.493 -16147834.693 10 0 59644 48600.00000 0 -16203689.225 -14127894.065 -13715081.532 10 0 59644 49500.00000 0 -17128518.927 -15349200.961 -11015669.885 10 0 59644 50400.00000 0 -17931397.704 -16224207.886 -8102106.124 10 0 59644 51300.00000 0 -18555107.158 -16759477.660 -5031051.898 10 0 59644 52200.00000 0 -18946834.048 -16973966.385 -1862217.336 10 0 59644 53100.00000 0 -19060531.055 -16897999.153 1342804.642 10 0 59644 54000.00000 0 -18859008.099 -16571779.951 4521739.682 10 0 59644 54900.00000 0 -18315665.542 -16043500.022 7612845.084 10 0 59644 55800.00000 0 -17415795.877 -15367125.734 10556110.441 10 0 59644 56700.00000 0 -16157398.789 -14599960.356 13294422.243 10 0 59644 57600.00000 0 -14551475.061 -13800083.363 15774669.719 10 0 59644 58500.00000 0 -12621786.739 -13023775.659 17948770.582 10 0 59644 59400.00000 0 -10404093.330 -12323039.354 19774597.270 10 0 59644 60300.00000 0 -7944895.484 -11743316.292 21216786.438 10 0 59644 61200.00000 0 -5299738.104 -11321500.904 22247416.783 10 0 59644 62100.00000 0 -2531142.782 -11084330.328 22846543.046 10 0 59644 63000.00000 0 293745.445 -11047218.817 23002576.685 10 0 59644 63900.00000 0 3105700.302 -11213584.845 22712506.529 10 0 59644 64800.00000 0 5836041.273 -11574698.798 21981955.631 10 0 59644 65700.00000 0 8419237.769 -12110057.530 20825073.321 10 0 59644 66600.00000 0 10795383.683 -12788270.207 19264264.424 10 0 59644 67500.00000 0 12912440.939 -13568418.643 17329760.392 10 0 59644 68400.00000 0 14728159.987 -14401835.536 15059039.961 10 0 59644 69300.00000 0 16211598.256 -15234226.507 12496109.751 10 0 59644 70200.00000 0 17344174.100 -16008047.257 9690657.888 10 0 59644 71100.00000 0 18120212.908 -16665036.257 6697096.238 10 0 59644 72000.00000 0 18546962.953 -17148796.468 3573509.276 10 0 59644 72900.00000 0 18644080.726 -17407317.192 380529.569 10 0 59644 73800.00000 0 18442607.707 -17395329.292 -2819838.485 10 0 59644 74700.00000 0 17983481.888 -17076393.720 -5965423.631 10 0 59644 75600.00000 0 17315647.061 -16424634.229 -8995097.792 10 0 59644 76500.00000 0 16493839.952 -15426040.003 -11849967.236 10 0 59644 77400.00000 0 15576148.873 -14079281.916 -14474521.167 10 0 59644 78300.00000 0 14621447.373 -12396006.621 -16817714.970 10 0 59644 79200.00000 0 13686811.539 -10400594.583 -18833966.667 10 0 59644 80100.00000 0 12825030.313 -8129390.835 -20484046.867 10 0 59644 81000.00000 0 12082314.162 -5629439.339 -21735844.747 10 0 59644 81900.00000 0 11496298.944 -2956772.669 -22564995.147 10 0 59644 82800.00000 0 11094429.295 -174327.472 -22955354.518 10 0 59644 83700.00000 0 10892789.757 2650428.251 -22899316.562 10 0 59644 84600.00000 0 10895432.909 5448057.964 -22397961.412 10 0 59644 85500.00000 0 11094232.793 8149803.329 -21461035.434 10 0 59645 0.00000 0 11469269.681 10690205.040 -20106762.092 10 0 59645 900.00000 0 11989730.086 13009590.475 -18361486.623 10 0 59645 1800.00000 0 12615283.325 15056321.608 -16259163.185 10 0 59645 2700.00000 0 13297876.971 16788714.579 -13840691.933 10 0 59645 3600.00000 0 13983874.633 18176548.042 -11153120.561 10 0 59645 4500.00000 0 14616445.482 19202099.371 -8248725.345 10 0 59645 5400.00000 0 15138104.086 19860666.160 -5183989.890 10 0 59645 6300.00000 0 15493292.616 20160552.303 -2018501.808 10 0 59645 7200.00000 0 15630895.700 20122520.509 1186210.595 10 0 59645 8100.00000 0 15506581.081 19778735.703 4367878.440 10 0 59645 9000.00000 0 15084866.635 19171245.149 7464705.302 10 0 59645 9900.00000 0 14340826.035 18350060.631 10416568.965 10 0 59645 10800.00000 0 13261360.713 17370924.606 13166188.277 10 0 59645 11700.00000 0 11845984.171 16292855.294 15660232.343 10 0 59645 12600.00000 0 10107085.302 15175574.639 17850350.634 10 0 59645 13500.00000 0 8069659.277 14076927.567 19694104.511 10 0 59645 14400.00000 0 5770516.688 13050400.914 21155782.778 10 0 59645 15300.00000 0 3257003.425 12142845.812 22207086.271 10 0 59645 16200.00000 0 585283.799 11392498.470 22827669.131 10 0 59645 17100.00000 0 -2181742.629 10827381.551 23005527.176 10 0 59645 18000.00000 0 -4976805.037 10464152.350 22737226.515 10 0 59645 18900.00000 0 -7730809.262 10307445.321 22027968.473 10 0 59645 19800.00000 0 -10375465.356 10349735.914 20891489.724 10 0 59645 20700.00000 0 -12845886.929 10571731.125 19349799.420 10 0 59645 21600.00000 0 -15083055.763 10943270.267 17432757.953 10 0 59645 22500.00000 0 -17036050.397 11424698.266 15177504.799 10 0 59645 23400.00000 0 -18663946.853 11968654.077 12627745.740 10 0 59645 24300.00000 0 -19937313.132 12522199.300 9832912.386 10 0 59645 25200.00000 0 -20839235.612 13029197.700 6847209.495 10 0 59645 26100.00000 0 -21365834.759 13432845.465 3728567.946 10 0 59645 27000.00000 0 -21526248.847 13678245.440 537523.302 10 0 59645 27900.00000 0 -21342086.481 13714916.308 -2663958.500 10 0 59645 28800.00000 0 -20846371.068 13499130.164 -5813685.331 10 0 59645 29700.00000 0 -20082021.802 12995978.849 -8850449.281 10 0 59645 30600.00000 0 -19099935.297 12181080.645 -11715219.380 10 0 59645 31500.00000 0 -17956748.946 11041853.989 -14352292.842 10 0 59645 32400.00000 0 -16712380.523 9578303.020 -16710382.054 10 0 59645 33300.00000 0 -15427448.002 7803280.337 -18743615.762 10 0 59645 34200.00000 0 -14160678.553 5742214.377 -20412434.645 10 0 59645 35100.00000 0 -12966416.049 3432311.344 -21684363.724 10 0 59645 36000.00000 0 -11892332.105 921263.664 -22534646.538 10 0 59645 36900.00000 0 -10977437.031 -1734482.207 -22946728.709 10 0 59645 37800.00000 0 -10250474.242 -4471827.434 -22912581.558 10 0 59645 38700.00000 0 -9728765.493 -7223405.211 -22432859.519 10 0 59645 39600.00000 0 -9417555.209 -9920149.224 -21516888.206 10 0 59645 40500.00000 0 -9309881.111 -12493939.814 -20182483.350 10 0 59645 41400.00000 0 -9386976.143 -14880218.145 -18455603.934 10 0 59645 42300.00000 0 -9619184.240 -17020459.747 -16369846.180 10 0 59645 43200.00000 0 -9967350.744 -18864404.754 -13965788.077 10 0 59645 44100.00000 0 -10384628.174 -20371952.192 -11290197.149 10 0 59645 45000.00000 0 -10818620.410 -21514639.611 -8395116.992 10 0 59645 45900.00000 0 -11213773.942 -22276646.894 -5336850.576 10 0 59645 46800.00000 0 -11513914.353 -22655282.996 -2174860.446 10 0 59645 47700.00000 0 -11664819.979 -22660936.218 1029392.196 10 0 59645 48600.00000 0 -11616723.197 -22316491.238 4213646.371 10 0 59645 49500.00000 0 -11326632.894 -21656238.689 7316054.289 10 0 59645 50400.00000 0 -10760379.392 -20724324.309 10276384.212 10 0 59645 51300.00000 0 -9894295.007 -19572804.082 13037189.549 10 0 59645 52200.00000 0 -8716458.887 -18259388.067 15544921.361 10 0 59645 53100.00000 0 -7227453.351 -16844968.453 17750962.787 10 0 59645 54000.00000 0 -5440599.451 -15391035.991 19612565.789 10 0 59645 54900.00000 0 -3381661.347 -13957093.204 21093672.733 10 0 59645 55800.00000 0 -1088031.204 -12598172.507 22165607.682 10 0 59645 56700.00000 0 1392572.189 -11362562.524 22807624.942 10 0 59645 57600.00000 0 4003837.887 -10289836.898 23007305.115 10 0 59645 58500.00000 0 6682959.259 -9409267.112 22760791.673 10 0 59645 59400.00000 0 9363006.643 -8738684.678 22072863.988 10 0 59645 60300.00000 0 11975479.043 -8283839.381 20956845.552 10 0 59645 61200.00000 0 14452930.149 -8038279.712 19434349.030 10 0 59645 62100.00000 0 16731560.932 -7983759.940 17534862.652 10 0 59645 63000.00000 0 18753672.192 -8091156.458 15295185.239 10 0 59645 63900.00000 0 20469875.828 -8321854.823 12758720.022 10 0 59645 64800.00000 0 21840973.448 -8629549.185 9974640.067 10 0 59645 65700.00000 0 22839424.358 -8962378.460 6996940.641 10 0 59645 66600.00000 0 23450341.746 -9265309.226 3883396.352 10 0 59645 67500.00000 0 23671975.491 -9482664.705 694442.810 10 0 59645 68400.00000 0 23515661.286 -9560692.748 -2507995.632 10 0 59645 69300.00000 0 23005238.148 -9450063.777 -5661709.162 10 0 59645 70200.00000 0 22175958.728 -9108192.330 -8705413.191 10 0 59645 71100.00000 0 21072938.231 -8501283.041 -11579942.503 10 0 59645 72000.00000 0 19749207.271 -7606013.429 -14229405.102 10 0 59645 72900.00000 0 18263450.684 -6410781.038 -16602272.869 10 0 59645 73800.00000 0 16677527.591 -4916460.799 -18652387.460 10 0 59645 74700.00000 0 15053877.191 -3136639.209 -20339861.479 10 0 59645 75600.00000 0 13452919.431 -1097313.863 -21631857.312 10 0 59645 76500.00000 0 11930559.828 1163930.610 -22503228.357 10 0 59645 77400.00000 0 10535903.194 3599237.023 -22937010.196 10 0 59645 78300.00000 0 9309272.043 6152226.873 -22924752.190 10 0 59645 79200.00000 0 8280612.540 8760116.283 -22466683.082 10 0 59645 80100.00000 0 7468354.455 11356109.199 -21571707.361 10 0 59645 81000.00000 0 6878772.421 13871968.728 -20257232.388 10 0 59645 81900.00000 0 6505874.598 16240659.991 -18548829.497 10 0 59645 82800.00000 0 6331822.675 18398954.528 -16479735.544 10 0 59645 83700.00000 0 6327864.619 20289887.929 -14090204.460 10 0 59645 84600.00000 0 6455739.932 21864968.328 -11426721.354 10 0 59645 85500.00000 0 6669497.176 23086043.631 -8541094.578 99